User: anonymous   Login
Location: Arcones
(41.1182°N, 3.7238°W)
Time: 17:49:46
(UTC+00:00)
Language:

Spot 4 Rocket - Orbit

View from above orbital plane
View from above orbital plane
View from above satellite
View from above satellite

Ground track
Ground track

The orbit is defined by the following mean orbital elements,

1 25261U          26041.50747104 +.00000000 +00000-0 +16150-3 0 00006
2 25261  98.8294  69.4371 0004248 129.5879 230.5682 14.36242617    09
Epoch (UTC): 10 February 2026 12:10:45
Eccentricity: 0.0004248
inclination: 98.8294°
perigee height: 768 km
apogee height: 774 km
right ascension of ascending node: 69.4371°
argument of perigee: 129.5879°
revolutions per day: 14.36242617
mean anomaly at epoch: 230.5682°

The dashed part of the orbit path shows where the satellite is in the earth's shadow,  

DLR